Location: Saint Louis
(38.6272°N, 90.1978°W)
Time: 05:43:31
(UTC-05:00)

ISS - Pass Details

Date: 26 December 2012
Orbit: 402 x 404 km, 51.6° (Epoch: 26 May)

Event Time Altitude Azimuth Distance (km) Brightness Sun altitude
Rises 17:19:38 0° 317° (NW) 2,393 0.8 -6.7°
Reaches altitude 10° 17:22:10 10° 335° (NNW) 1,515 -0.4 -7.1°
Maximum altitude 17:24:44 20° 24° (NNE) 1,051 -1.7 -7.6°
Enters shadow 17:27:10 11° 72° (ENE) 1,461 -1.2 -8.0°
